カタログに戻る

STARLINK-37189

運用中通信SSO
NORAD 68603·PAYLOAD·🇺🇸 United States

打ち上げ Apr 5, 2026 から Vandenberg Space Force Base

Loading…

次のパス (今後24時間)

TLE

最新Source: CelesTrak SupGP

元期: Sep 15, 2026, 04:29 UTC

1 68603C 26073B   26258.18729167 -.00053936  00000+0 -16735-2 0  2584
2 68603  97.2848  96.2280 0001723  87.8667 256.5025 15.33481920    17

AllMySatでSTARLINK-37189をリアルタイム追跡

Download on the App Store